EW1090 Weather Reports


Display with metric or nautical units.
time (UTC)temp
F
wind
direction
speed
MPH
gust
MPH
rain 1hr
in
rain 24hr
in
rain mn
in
humidity
%
barometer
mb
20210917163803 80 183 0.0 3.0 0.07 0.07 0.07 85 1016.6
20210917163321 80 211 0.0 2.0 0.07 0.07 0.07 85 1016.8
20210917162818 80 295 0.0 6.0 0.07 0.07 0.07 86 1016.9
20210917162317 80 246 1.0 6.0 0.07 0.07 0.07 86 1017.1
20210917161813 80 225 0.0 5.0 0.07 0.07 0.07 87 1017.3
20210917161312 81 184 1.0 5.0 0.07 0.07 0.07 87 1017.1
20210917160810 81 319 0.0 4.0 0.06 0.06 0.06 87 1017.0
20210917160306 82 219 0.0 7.0 0.05 0.05 0.05 87 1016.9
20210917155802 83 232 1.0 7.0 0.03 0.03 0.03 86 1016.8
20210917155320 84 219 1.0 4.0 0.00 0.00 0.00 85 1016.7
20210917154818 84 171 1.0 3.0 0.00 0.00 0.00 85 1016.4
20210917154316 84 142 0.0 4.0 0.00 0.00 0.00 85 1016.5
20210917153814 84 136 0.0 5.0 0.00 0.00 0.00 85 1016.3
20210917153311 84 99 1.0 5.0 0.00 0.00 0.00 84 1016.2
20210917152811 85 154 1.0 4.0 0.00 0.00 0.00 84 1016.2
20210917152311 85 113 0.0 4.0 0.00 0.00 0.00 84 1016.0
20210917151812 85 132 1.0 5.0 0.00 0.00 0.00 83 1016.1
20210917151311 85 111 1.0 5.0 0.00 0.00 0.00 83 1016.0
20210917150808 86 87 1.0 7.0 0.00 0.00 0.00 82 1016.0
20210917150303 86 155 1.0 7.0 0.00 0.00 0.00 81 1016.1
20210917145821 87 86 1.0 5.0 0.00 0.00 0.00 80 1016.0
20210917145319 88 52 1.0 5.0 0.00 0.00 0.00 81 1015.8
20210917144817 88 100 1.0 7.0 0.00 0.00 0.00 79 1015.8
20210917144314 88 161 1.0 4.0 0.00 0.00 0.00 80 1015.8
20210917143812 87 161 0.0 6.0 0.00 0.00 0.00 82 1015.6
20210917143310 87 153 0.0 6.0 0.00 0.00 0.00 81 1015.6
20210917142805 87 100 0.0 7.0 0.00 0.00 0.00 82 1015.5
20210917142306 87 161 1.0 4.0 0.00 0.00 0.00 82 1015.4
20210917141314 86 144 2.0 7.0 0.00 0.00 0.00 82 1015.1
20210917140812 86 166 2.0 7.0 0.00 0.00 0.00 82 1015.0
20210917140308 86 143 1.0 5.0 0.00 0.00 0.00 82 1015.0
20210917135807 85 151 0.0 5.0 0.00 0.00 0.00 84 1014.9
20210917135321 85 127 0.0 3.0 0.00 0.00 0.00 84 1014.9
20210917134817 84 74 0.0 3.0 0.00 0.00 0.00 85 1014.9
20210917133822 83 155 1.0 4.0 0.00 0.00 0.00 86 1015.0
20210917133318 83 138 0.0 5.0 0.00 0.00 0.00 85 1015.0
20210917132814 82 148 1.0 5.0 0.00 0.00 0.00 85 1015.1
20210917132312 82 168 1.0 4.0 0.00 0.00 0.00 85 1015.0
20210917131808 82 139 1.0 4.0 0.00 0.00 0.00 84 1015.0
20210917131303 81 108 0.0 2.0 0.00 0.00 0.00 84 1014.9
20210917130821 81 153 0.0 1.0 0.00 0.00 0.00 84 1014.9
20210917130316 81 113 0.0 2.0 0.00 0.00 0.00 83 1014.9
20210917125814 81 151 0.0 1.0 0.00 0.00 0.00 82 1014.8
20210917124820 80 103 0.0 1.0 0.00 0.00 0.00 82 1014.7
20210917124319 80 117 0.0 2.0 0.00 0.00 0.00 81 1014.7
20210917123817 80 138 0.0 0.0 0.00 0.00 0.00 82 1014.6
20210917123314 80 138 0.0 0.0 0.00 0.00 0.00 82 1014.6
20210917122811 80 138 0.0 1.0 0.00 0.00 0.00 82 1014.6
20210917122308 80 138 0.0 2.0 0.00 0.00 0.00 82 1014.5
20210917121806 80 161 0.0 2.0 0.00 0.00 0.00 82 1014.5
20210917121303 80 85 0.0 1.0 0.00 0.00 0.00 82 1014.4
20210917120820 79 135 0.0 1.0 0.00 0.00 0.00 82 1014.3
20210917120317 79 127 0.0 1.0 0.00 0.00 0.00 82 1014.2
20210917115814 79 104 0.0 0.0 0.00 0.00 0.00 82 1014.3
20210917115314 79 104 0.0 0.0 0.00 0.00 0.00 82 1014.2
20210917114809 79 97 0.0 2.0 0.00 0.00 0.00 82 1014.1
20210917114307 79 88 0.0 2.0 0.00 0.00 0.00 83 1014.0
20210917113804 79 105 0.0 1.0 0.00 0.00 0.00 83 1014.1
20210917113303 79 143 0.0 1.0 0.00 0.00 0.00 83 1014.0
20210917112821 79 59 0.0 2.0 0.00 0.00 0.00 84 1014.0
20210917112320 79 47 0.0 2.0 0.00 0.00 0.00 84 1014.0
20210917111818 79 107 0.0 3.0 0.00 0.00 0.00 84 1014.0
20210917111318 79 90 0.0 3.0 0.00 0.00 0.00 84 1013.9
20210917110815 79 69 0.0 3.0 0.00 0.00 0.00 84 1013.9
20210917110310 79 62 0.0 3.0 0.00 0.00 0.00 84 1013.8
20210917105807 79 81 0.0 3.0 0.00 0.00 0.00 84 1013.8
20210917105306 79 66 0.0 3.0 0.00 0.00 0.00 85 1013.8
20210917104806 79 71 0.0 1.0 0.00 0.00 0.00 85 1013.7
20210917104304 79 65 0.0 1.0 0.00 0.00 0.00 85 1013.7
20210917103804 79 51 0.0 1.0 0.00 0.00 0.00 85 1013.7
20210917103302 79 71 0.0 1.0 0.00 0.00 0.00 85 1013.8
20210917102821 79 84 0.0 0.0 0.00 0.00 0.00 85 1013.7
20210917102320 79 84 0.0 3.0 0.00 0.00 0.00 85 1013.7
20210917101817 79 84 0.0 3.0 0.00 0.00 0.00 85 1013.7
20210917101315 79 59 0.0 1.0 0.00 0.00 0.00 85 1013.6
20210917100813 79 69 0.0 1.0 0.00 0.00 0.00 86 1013.5
20210917100311 79 116 0.0 1.0 0.00 0.00 0.00 86 1013.5
20210917095810 79 91 0.0 1.0 0.00 0.00 0.00 86 1013.4
20210917095310 79 96 0.0 1.0 0.00 0.00 0.00 86 1013.4
20210917094806 79 105 0.0 1.0 0.00 0.00 0.00 86 1013.3
20210917094302 79 66 0.0 3.0 0.00 0.00 0.00 86 1013.3
20210917093821 79 60 0.0 3.0 0.00 0.00 0.00 86 1013.3
20210917093318 79 80 0.0 1.0 0.00 0.00 0.00 86 1013.2
20210917092816 79 91 0.0 0.0 0.00 0.00 0.00 86 1013.2
20210917092315 79 85 0.0 1.0 0.00 0.00 0.00 86 1013.1
20210917091816 79 85 0.0 1.0 0.00 0.00 0.00 86 1013.2
20210917091315 79 123 0.0 2.0 0.00 0.00 0.00 86 1013.1
20210917090813 79 123 0.0 2.0 0.00 0.00 0.00 86 1013.1
20210917090310 79 146 0.0 1.0 0.00 0.00 0.00 86 1013.1
20210917085809 79 104 0.0 1.0 0.00 0.00 0.00 86 1013.1
20210917085308 79 104 0.0 1.0 0.00 0.00 0.00 86 1013.2
20210917084807 79 143 0.0 3.0 0.00 0.00 0.00 86 1013.1
20210917084306 79 143 0.0 3.0 0.00 0.00 0.00 86 1013.1
20210917083806 79 123 0.0 1.0 0.00 0.00 0.00 86 1013.2
20210917083306 79 123 0.0 1.0 0.00 0.00 0.00 86 1013.3
20210917082804 79 129 0.0 1.0 0.00 0.00 0.00 86 1013.2
20210917082322 79 116 0.0 1.0 0.00 0.00 0.00 86 1013.1
20210917081820 79 86 0.0 2.0 0.00 0.00 0.00 86 1013.1
20210917081318 79 134 0.0 2.0 0.00 0.00 0.00 86 1013.2
20210917080817 79 79 0.0 1.0 0.00 0.00 0.00 86 1013.2
20210917080313 79 153 0.0 2.0 0.00 0.00 0.00 86 1013.1
20210917075811 79 140 0.0 1.0 0.00 0.00 0.00 86 1013.1
20210917075311 79 139 0.0 1.0 0.00 0.00 0.00 86 1013.0
20210917074810 79 148 0.0 1.0 0.00 0.00 0.00 86 1013.0
20210917074308 79 114 0.0 0.0 0.00 0.00 0.00 86 1013.0
20210917073806 80 144 0.0 2.0 0.00 0.00 0.00 86 1013.0
20210917073303 80 144 0.0 2.0 0.00 0.00 0.00 86 1012.9
20210917072803 80 148 0.0 3.0 0.00 0.00 0.00 86 1012.9
20210917072305 80 134 0.0 3.0 0.00 0.00 0.00 85 1012.9
20210917071802 80 126 0.0 2.0 0.00 0.00 0.00 86 1013.0
20210917071302 80 126 0.0 3.0 0.00 0.00 0.00 85 1012.9
20210917070820 80 148 1.0 4.0 0.00 0.00 0.00 85 1012.9
20210917070316 80 115 1.0 4.0 0.00 0.00 0.00 86 1012.9
20210917065814 80 92 0.0 1.0 0.00 0.00 0.00 86 1012.9
20210917065310 80 149 0.0 1.0 0.00 0.00 0.00 86 1012.9
20210917064809 80 130 0.0 1.0 0.00 0.00 0.00 86 1012.9
20210917064309 80 132 0.0 2.0 0.00 0.00 0.00 86 1012.9
20210917063809 80 132 0.0 2.0 0.00 0.00 0.00 86 1012.9
20210917063307 80 145 0.0 3.0 0.00 0.00 0.00 86 1012.9
20210917062806 79 123 0.0 2.0 0.00 0.00 0.00 86 1012.9
20210917062305 80 138 0.0 3.0 0.00 0.00 0.00 86 1012.9
20210917061818 80 138 0.0 3.0 0.00 0.00 0.00 86 1012.8
20210917061314 80 156 0.0 3.0 0.00 0.00 0.00 86 1012.8
20210917060808 80 92 0.0 3.0 0.00 0.00 0.00 86 1012.7
20210917060304 80 137 0.0 3.0 0.00 0.00 0.00 86 1012.7
20210917055804 80 165 0.0 2.0 0.00 0.00 0.00 86 1012.6
20210917055322 79 148 0.0 4.0 0.00 0.00 0.00 86 1012.5
20210917054821 79 190 0.0 4.0 0.00 0.00 0.00 86 1012.5
20210917054318 79 200 0.0 3.0 0.00 0.00 0.00 86 1012.4
20210917053814 79 198 0.0 2.0 0.00 0.00 0.00 86 1012.4
20210917053309 79 121 0.0 3.0 0.00 0.00 0.00 86 1012.5
20210917052810 79 193 0.0 2.0 0.00 0.00 0.00 86 1012.4
20210917052308 80 199 0.0 1.0 0.00 0.00 0.00 86 1012.5
20210917051807 80 210 0.0 0.0 0.00 0.00 0.00 86 1012.4
20210917051304 80 204 0.0 0.0 0.00 0.00 0.00 86 1012.5
20210917050802 80 265 0.0 2.0 0.00 0.00 0.00 86 1012.5
20210917050320 80 221 0.0 2.0 0.00 0.00 0.00 86 1012.4
20210917045812 80 170 0.0 3.0 0.00 0.00 0.00 86 1012.4
20210917045310 80 169 0.0 3.0 0.00 0.00 0.00 86 1012.5
20210917044809 80 140 0.0 4.0 0.00 0.00 0.00 86 1012.5
20210917044310 80 132 0.0 4.0 0.00 0.00 0.00 86 1012.5
20210917043810 80 207 0.0 3.0 0.00 0.00 0.00 85 1012.5
20210917043304 80 126 0.0 5.0 0.00 0.00 0.00 85 1012.6
20210917042803 80 185 0.0 5.0 0.00 0.00 0.00 85 1012.6
20210917042305 80 153 1.0 5.0 0.00 0.00 0.00 85 1012.5
20210917041803 80 150 0.0 4.0 0.00 0.00 0.00 84 1012.6
20210917041322 80 106 1.0 6.0 0.00 0.00 0.00 84 1012.5
20210917040822 80 188 0.0 5.0 0.00 0.00 0.00 84 1012.4
20210917040317 80 188 1.0 7.0 0.00 0.00 0.00 84 1012.3
20210917035815 80 149 1.0 7.0 0.00 0.00 0.00 83 1012.3
20210917035314 80 178 1.0 7.0 0.00 0.00 0.00 83 1012.2
20210917034812 80 200 1.0 6.0 0.00 0.00 0.00 83 1012.2
20210917034310 80 184 1.0 4.0 0.00 0.00 0.00 83 1012.1
20210917033811 80 149 0.0 4.0 0.00 0.00 0.00 83 1011.9
20210917033310 80 18 1.0 5.0 0.00 0.00 0.00 84 1011.9
20210917032807 80 181 1.0 5.0 0.00 0.00 0.00 84 1011.9
20210917032306 80 132 1.0 5.0 0.00 0.00 0.00 84 1011.8
20210917031803 80 209 0.0 5.0 0.00 0.00 0.00 85 1011.9
20210917031321 80 153 1.0 6.0 0.00 0.00 0.00 85 1011.8
20210917030816 80 146 1.0 6.0 0.00 0.00 0.00 85 1011.8
20210917030311 80 154 1.0 5.0 0.00 0.00 0.00 85 1011.7
20210917025811 80 159 1.0 4.0 0.00 0.00 0.00 85 1011.8
20210917025309 80 90 1.0 4.0 0.00 0.00 0.00 85 1011.8
20210917024809 80 144 0.0 4.0 0.00 0.00 0.00 85 1011.8
20210917024307 80 262 1.0 4.0 0.00 0.00 0.00 86 1011.8
20210917023808 80 159 0.0 3.0 0.00 0.00 0.00 86 1011.8
20210917023304 80 158 0.0 4.0 0.00 0.00 0.00 86 1011.8
20210917022822 80 149 0.0 7.0 0.00 0.00 0.00 86 1011.8
20210917022321 80 197 1.0 7.0 0.00 0.00 0.00 86 1011.8
20210917021820 80 165 1.0 7.0 0.00 0.00 0.00 86 1011.8
20210917021319 81 125 0.0 7.0 0.00 0.00 0.00 86 1011.8
20210917020819 81 140 0.0 5.0 0.00 0.00 0.00 86 1011.8
20210917020318 81 166 0.0 7.0 0.00 0.00 0.00 86 1011.9
20210917015814 81 154 1.0 7.0 0.00 0.00 0.00 86 1011.9
20210917015312 81 165 0.0 4.0 0.00 0.00 0.00 86 1012.0
20210917014811 81 164 1.0 6.0 0.00 0.00 0.00 86 1012.0
20210917014309 81 125 2.0 8.0 0.00 0.00 0.00 86 1012.0
20210917013810 81 88 2.0 8.0 0.00 0.00 0.00 86 1011.9
20210917013309 81 198 1.0 5.0 0.00 0.00 0.00 86 1011.9
20210917012806 81 196 1.0 7.0 0.00 0.00 0.00 86 1012.0
20210917012306 81 203 2.0 7.0 0.00 0.00 0.00 86 1012.0
20210917011822 81 126 2.0 10.0 0.00 0.00 0.00 86 1011.9
20210917011320 82 167 1.0 10.0 0.00 0.00 0.00 86 1012.0
20210917010819 82 151 1.0 7.0 0.00 0.00 0.00 86 1012.0
20210917010316 82 172 0.0 7.0 0.00 0.00 0.00 85 1012.0
20210917005815 82 182 1.0 9.0 0.00 0.00 0.00 85 1012.0
20210917005314 82 22 2.0 8.0 0.00 0.00 0.00 85 1012.0
20210917004812 83 161 1.0 7.0 0.00 0.00 0.00 84 1012.0
20210917004310 83 159 2.0 7.0 0.00 0.00 0.00 84 1012.0
20210917003810 83 167 2.0 6.0 0.00 0.00 0.00 83 1011.9
20210917003307 83 121 1.0 9.0 0.00 0.00 0.00 83 1011.7
20210917002806 83 89 2.0 9.0 0.00 0.00 0.00 82 1011.7
20210917002305 83 121 1.0 6.0 0.00 0.00 0.00 81 1011.6
20210917001823 83 138 1.0 6.0 0.00 0.00 0.00 80 1011.6
20210917001321 84 274 1.0 7.0 0.00 0.00 0.00 80 1011.4
20210917000310 84 173 1.0 4.0 0.00 0.00 0.00 80 1011.2
20210916235808 84 211 1.0 5.0 0.00 0.00 0.00 81 1011.0
20210916235307 84 160 1.0 6.0 0.00 0.00 0.00 80 1010.9
20210916234823 84 194 1.0 5.0 0.00 0.00 0.00 80 1010.8
20210916234320 84 180 2.0 4.0 0.00 0.00 0.00 80 1010.9
20210916233820 84 136 0.0 5.0 0.00 0.00 0.00 80 1010.9
20210916233318 84 236 1.0 5.0 0.00 0.00 0.00 79 1010.9
20210916232816 84 109 0.0 6.0 0.00 0.00 0.00 79 1011.0
20210916232315 85 173 2.0 6.0 0.00 0.00 0.00 78 1010.9
20210916231813 85 140 1.0 6.0 0.00 0.00 0.00 78 1010.9
20210916231313 85 171 1.0 6.0 0.00 0.00 0.00 77 1010.9
20210916230812 86 221 1.0 5.0 0.00 0.00 0.00 77 1010.8
20210916230308 86 109 1.0 4.0 0.00 0.00 0.00 76 1010.9
20210916225809 87 134 1.0 10.0 0.00 0.00 0.00 76 1010.9
20210916225307 87 163 3.0 10.0 0.00 0.00 0.00 76 1010.8
20210916224808 88 251 1.0 8.0 0.00 0.00 0.00 77 1010.7
20210916224306 88 144 1.0 7.0 0.00 0.00 0.00 76 1010.5
20210916223805 89 145 3.0 7.0 0.00 0.00 0.00 75 1010.5
20210916223322 89 182 2.0 10.0 0.00 0.00 0.00 74 1010.3
20210916222822 89 204 1.0 10.0 0.00 0.00 0.00 74 1010.3
20210916222321 89 152 2.0 6.0 0.00 0.00 0.00 73 1010.2
20210916221821 89 238 1.0 6.0 0.00 0.00 0.00 73 1010.1
20210916221320 90 300 1.0 7.0 0.00 0.00 0.00 72 1010.1
20210916220820 90 160 2.0 7.0 0.00 0.00 0.00 71 1010.0
20210916220318 90 217 2.0 7.0 0.00 0.00 0.00 70 1010.0
20210916215817 91 239 1.0 6.0 0.00 0.00 0.00 70 1009.9
20210916215314 91 76 2.0 6.0 0.00 0.00 0.00 70 1009.9
20210916214812 90 217 2.0 6.0 0.00 0.00 0.00 70 1009.9
20210916214311 90 222 1.0 10.0 0.00 0.00 0.00 71 1009.9
20210916213811 90 216 1.0 9.0 0.00 0.00 0.00 72 1009.9
20210916213309 90 162 2.0 9.0 0.00 0.00 0.00 71 1009.8
20210916212808 91 143 2.0 9.0 0.00 0.00 0.00 71 1009.8
20210916212308 91 274 2.0 9.0 0.00 0.00 0.00 71 1009.8
20210916211808 91 360 1.0 5.0 0.00 0.00 0.00 73 1009.9
20210916211307 91 159 0.0 5.0 0.00 0.00 0.00 73 1009.8
20210916210806 91 213 1.0 5.0 0.00 0.00 0.00 73 1009.7
20210916210304 90 236 1.0 5.0 0.00 0.00 0.00 72 1009.7
20210916205821 90 219 1.0 9.0 0.00 0.00 0.00 73 1009.7
20210916205320 90 144 2.0 9.0 0.00 0.00 0.00 72 1009.7
20210916204819 90 147 1.0 7.0 0.00 0.00 0.00 72 1009.8
20210916204318 90 138 2.0 6.0 0.00 0.00 0.00 72 1009.9
20210916203817 90 55 0.0 4.0 0.00 0.00 0.00 72 1009.9
20210916203317 90 129 1.0 8.0 0.00 0.23 0.00 72 1009.9
20210916202815 90 128 2.0 8.0 0.00 0.23 0.00 71 1009.9
20210916202312 90 186 1.0 7.0 0.00 0.23 0.00 71 1009.8
20210916201811 90 182 1.0 7.0 0.00 0.23 0.00 70 1009.9
20210916201308 91 180 2.0 10.0 0.00 0.23 0.00 68 1009.8
20210916200806 92 184 3.0 10.0 0.00 0.23 0.00 67 1009.8
20210916200320 91 190 2.0 8.0 0.00 0.23 0.00 69 1009.8
20210916195839 90 136 1.0 8.0 0.00 0.23 0.00 70 1009.8
20210916195318 90 186 2.0 7.0 0.00 0.23 0.00 69 1009.9
20210916194817 91 179 2.0 7.0 0.00 0.23 0.00 67 1010.0
20210916194314 92 188 1.0 10.0 0.00 0.23 0.00 66 1010.0
20210916193814 92 221 2.0 10.0 0.00 0.23 0.00 65 1010.0
20210916193312 93 167 2.0 7.0 0.00 0.23 0.00 66 1010.1
20210916192810 93 156 2.0 7.0 0.00 0.23 0.00 64 1010.1
20210916192310 93 194 3.0 8.0 0.00 0.23 0.00 63 1010.1
20210916191809 93 132 1.0 8.0 0.00 0.23 0.00 62 1010.2
20210916191307 93 94 2.0 5.0 0.00 0.23 0.00 62 1010.2
20210916190804 93 243 1.0 5.0 0.00 0.23 0.00 66 1010.2
20210916190322 93 214 2.0 8.0 0.00 0.23 0.00 64 1010.2
20210916185820 92 80 2.0 8.0 0.00 0.23 0.00 67 1010.3
20210916185317 92 23 2.0 6.0 0.00 0.23 0.00 65 1010.2
20210916184818 92 186 2.0 7.0 0.00 0.23 0.00 67 1010.3
20210916184316 91 238 2.0 7.0 0.00 0.23 0.00 68 1010.3
20210916183817 92 154 1.0 7.0 0.00 0.23 0.00 68 1010.3
20210916183315 92 92 1.0 7.0 0.00 0.23 0.00 69 1010.3
20210916182814 92 65 2.0 6.0 0.00 0.23 0.00 69 1010.4
20210916182310 92 97 1.0 5.0 0.00 0.23 0.00 70 1010.4
20210916181806 91 150 2.0 6.0 0.00 0.23 0.00 70 1010.3
20210916181324 91 284 1.0 6.0 0.00 0.23 0.00 72 1010.3
20210916180823 91 107 1.0 6.0 0.00 0.23 0.00 73 1010.4
20210916180319 91 184 0.0 5.0 0.00 0.23 0.00 76 1010.3
20210916175817 90 229 2.0 5.0 0.00 0.23 0.00 74 1010.5
20210916175314 90 156 2.0 5.0 0.00 0.23 0.00 76 1010.6
20210916174811 89 283 2.0 5.0 0.00 0.23 0.00 77 1010.6
20210916174308 88 134 1.0 4.0 0.00 0.23 0.00 80 1010.7
20210916173805 88 151 1.0 5.0 0.00 0.23 0.00 79 1010.7
20210916173304 87 154 1.0 6.0 0.00 0.28 0.00 79 1010.7
20210916172823 88 134 1.0 7.0 0.00 0.28 0.00 79 1010.9
20210916172323 88 126 2.0 6.0 0.00 0.28 0.00 78 1010.9
20210916171822 88 128 1.0 6.0 0.00 0.28 0.00 77 1010.9
20210916171322 88 103 1.0 3.0 0.00 0.28 0.00 78 1010.8
20210916170820 88 79 1.0 3.0 0.00 0.28 0.00 77 1010.8
20210916170318 88 69 0.0 3.0 0.00 0.28 0.00 77 1010.9
20210916165817 88 52 0.0 6.0 0.00 0.28 0.00 77 1010.9
20210916165315 88 132 1.0 6.0 0.00 0.28 0.00 78 1011.0
20210916164815 88 151 1.0 7.0 0.00 0.28 0.00 77 1011.2
20210916164313 88 136 3.0 7.0 0.00 0.28 0.00 76 1011.2